Tracking 19794 objects as of 23-Jul-2019
HD Live streaming from Space Station
objects crossing your sky now

OKEAN O

Track OKEAN O now!
10-day predictions
OKEAN O is classified as:


NORAD ID: 25860
Int'l Code: 1999-039A
Perigee: 646.3 km
Apogee: 648.0 km
Inclination: 98.2 °
Period: 97.5 minutes
Semi major axis: 7018 km
RCS: 19.8052 m2 (large)
Launch date: July 17, 1999
Source: Commonwealth of Independent States (former USSR) (CIS)
Launch site: TYURATAM MISSILE AND SPACE COMPLEX (TTMTR)
aabbcc
Your satellite tracking list
Your tracking list is empty




NASA's NSSDC Master Catalog

Two Line Element Set (TLE):
1 25860U 99039A   19203.49309427  .00000009  00000-0  89491-5 0  9999
2 25860  98.2257 211.4395 0001215 113.8616 246.2721 14.76614009 76764
Source of the keplerian elements: AFSPC